User: anonymous   Login
Location: ČR
(50.0000°N, 15.0000°E)
Time: 14:49:43
(UTC+00:00)
Language:

A-11 Canister half - Orbit

View from above orbital plane
View from above orbital plane
View from above satellite
View from above satellite

Ground track
Ground track

The orbit data is extracted from the following two-line orbital elements,

1 00053U 60009E   21297.64825885  .00000024  00000-0  10835-2 0  9995
2 00053  47.2742 174.9575 0099417 100.6120 260.5883 12.17263928728767
Epoch (UTC): 24 October 2021 15:33:29
Eccentricity: 0.0099417
inclination: 47.2742°
perigee height: 1525 km
apogee height: 1684 km
right ascension of ascending node: 174.9575°
argument of perigee: 100.6120°
revolutions per day: 12.17263928
mean anomaly at epoch: 260.5883°
orbit number at epoch: 72876

The dashed part of the orbit path shows where the satellite is in the earth's shadow,  

DLR